Pierre, SD

2:15 AM CST on November 17, 2019 (GMT -0600)
Pierre Regional

Weather History for KPIR - June, 2019

Change the Weather History Date:

Saturday, June 1, 2019

  Actual Average Record
Temperature  
Mean Temperature 57 °F 63 °F  
Max Temperature 66 °F 75 °F 100 °F (1940)
Min Temperature 47 °F 51 °F 38 °F (1946)
Degree Days  
Heating Degree Days 8    
Month to date heating degree days 8  
Since 1 June heating degree days 8  
Since 1 July heating degree days 8134  
Cooling Degree Days 0    
Month to date cooling degree days 0  
Year to date cooling degree days 11  
Since 1 June cooling degree days 0  
Growing Degree Days 5 (Base 50)    
Moisture  
Dew Point 46 °F    
Average Humidity 69    
Maximum Humidity 86    
Minimum Humidity 52    
Precipitation  
Precipitation 0.00 in 0.13 in 0.95 in (1955)
Month to date precipitation 0.00 0.13  
Year to date precipitation 13.85 7.33  
Snow  
Snow 0.00 in 0.00 in 0.00 in ()
Month to date snowfall 0.0 0.0  
Since 1 July snowfall 66.3 31.9  
Snow Depth 0.00 in    
Sea Level Pressure  
Sea Level Pressure 30.00 in    
Wind  
Wind Speed 8 mph (NW)    
Max Wind Speed 17 mph    
Max Gust Speed 23 mph    
Visibility 10 miles    
Events      
T = Trace of Precipitation, MM = Missing Value Source: NWS Daily Summary

Daily Weather History Graph

Daily Weather History Graph

Search for Another Location

Airport or City:

Astronomy

Jun. 01, 2019 Rise Set
Actual Time 6:00 AM CDT 9:18 PM CDT
Civil Twilight 5:24 AM CDT 9:54 PM CDT
Nautical Twilight 4:38 AM CDT 10:40 PM CDT
Astronomical Twilight 3:40 AM CDT 11:38 PM CDT
Moon 5:12 AM CDT (6/1) 7:28 PM CDT (6/1)
Length of Visible Light 16h 29m
Length of Day
15h 18m
Waning Crescent, 4% of the Moon is Illuminated
Jun 1
Waning Crescent
Jun 3
New
Jun 10
First Quarter
Jun 17
Full
Jun 25
Last Quarter

Hourly Weather History & Observations

Time (CDT) Temp. Dew Point Humidity Pressure Visibility Wind Dir Wind Speed Gust Speed Precip Events Conditions
12:53 AM 59.0 °F 53.1 °F 81% 29.90 in 10.0 mi North 15.0 mph - N/A   Clear
1:53 AM 55.0 °F 48.9 °F 80% 29.93 in 10.0 mi North 13.8 mph - N/A   Clear
2:53 AM 53.1 °F 45.0 °F 74% 29.95 in 10.0 mi North 16.1 mph - N/A   Clear
3:53 AM 51.1 °F 45.0 °F 80% 29.96 in 10.0 mi North 13.8 mph - N/A   Clear
4:53 AM 48.9 °F 44.1 °F 83% 29.98 in 10.0 mi NNW 11.5 mph - N/A   Clear
5:53 AM 46.9 °F 43.0 °F 86% 29.99 in 10.0 mi NNW 9.2 mph - N/A   Clear
6:53 AM 48.0 °F 43.0 °F 83% 30.01 in 10.0 mi NNW 9.2 mph - N/A   Clear
7:53 AM 50.0 °F 45.0 °F 83% 30.03 in 10.0 mi NW 10.4 mph - N/A   Clear
8:53 AM 52.0 °F 46.0 °F 80% 30.05 in 10.0 mi NNW 9.2 mph - N/A   Clear
9:53 AM 54.0 °F 46.0 °F 75% 30.06 in 10.0 mi NW 6.9 mph - N/A   Clear
10:53 AM 57.0 °F 46.9 °F 69% 30.06 in 10.0 mi NW 5.8 mph - N/A   Clear
11:53 AM 60.1 °F 46.9 °F 62% 30.06 in 10.0 mi NW 9.2 mph - N/A   Clear
12:53 PM 62.1 °F 46.9 °F 58% 30.05 in 10.0 mi WNW 8.1 mph - N/A   Clear
1:53 PM 62.1 °F 46.9 °F 58% 30.04 in 10.0 mi West 8.1 mph - N/A   Clear
2:53 PM 64.0 °F 46.9 °F 54% 30.03 in 10.0 mi NW 8.1 mph - N/A   Clear
3:53 PM 64.9 °F 48.0 °F 54% 30.02 in 10.0 mi West 6.9 mph - N/A   Clear
4:53 PM 64.9 °F 46.9 °F 52% 30.01 in 10.0 mi WNW 8.1 mph - N/A   Clear
5:53 PM 64.9 °F 48.0 °F 54% 30.00 in 10.0 mi WNW 5.8 mph - N/A   Clear
6:53 PM 64.9 °F 46.0 °F 50% 29.99 in 10.0 mi West 4.6 mph - N/A   Clear
7:53 PM 62.1 °F 48.9 °F 62% 29.98 in 10.0 mi WNW 5.8 mph - N/A   Clear
8:53 PM 61.0 °F 45.0 °F 56% 29.98 in 10.0 mi West 4.6 mph - N/A   Clear
9:53 PM 57.0 °F 44.1 °F 62% 29.99 in 10.0 mi WSW 3.5 mph - N/A   Clear
10:53 PM 57.0 °F 45.0 °F 64% 30.00 in 10.0 mi WSW 4.6 mph - N/A   Clear
11:53 PM 53.1 °F 44.1 °F 71% 29.99 in 10.0 mi WSW 4.6 mph - N/A   Clear